Location: Casteau
(50.5142°N, 4.0161°E)
Time: 06:28:26
(UTC+00:00)

ARIANE 5 R/B - Pass Details

Date: 18 September 2020
Orbit: 620 x 657 km, 98.2° (Epoch: 23 October)

Event Time Altitude Azimuth Distance (km) Brightness Sun altitude
Exits shadow 19:37:43 27° 78° (ENE) 1,196 3.6 -17.3°
Maximum altitude 19:38:16 28° 64° (ENE) 1,170 3.6 -17.4°
Drops below altitude 10° 19:42:00 10° 5° (N) 2,003 5.4 -18.0°
Sets 19:44:24 0° 354° (N) 2,912 6.5 -18.3°
